Location: Heisede
(52.2582°N, 9.8523°E)
Time: 04:32:23
(UTC+00:00)

Okean 3 Rocket - Visible Passes

Search period start: 19 April 2026 00:00
Search period end: 29 April 2026 00:00
Orbit: 608 x 639 km, 82.5° (Epoch: 18 April)

Date Brightness Start Highest point End Pass type
(mag) Time Alt. Az. Time Alt. Az. Time Alt. Az.
19 Apr 4.3 03:02:18 10° N 03:06:41 59° ENE 03:11:05 10° SSE visible
20 Apr 6.6 01:44:10 10° NNE 01:46:51 16° ENE 01:49:31 10° E visible
20 Apr 3.6 03:20:58 10° NNW 03:25:25 81° W 03:29:53 10° S visible
21 Apr 6.0 02:02:12 10° N 02:05:52 24° ENE 02:09:32 10° ESE visible
22 Apr 5.0 02:20:35 10° N 02:24:47 40° ENE 02:28:59 10° SE visible
23 Apr 6.8 01:03:24 10° NE 01:04:43 11° ENE 01:06:02 10° ENE visible
23 Apr 3.9 02:39:08 10° N 02:43:35 69° ENE 02:48:02 10° SSE visible
24 Apr 6.4 01:20:47 10° NNE 01:23:49 18° ENE 01:26:52 10° ESE visible
24 Apr 3.6 02:57:51 10° NNW 03:02:17 69° W 03:06:44 10° S visible
25 Apr 5.6 01:38:57 10° N 01:42:49 28° ENE 01:46:40 10° SE visible
25 Apr 4.1 03:16:44 10° NNW 03:20:53 39° W 03:25:03 10° SSW visible
26 Apr 4.6 01:57:22 10° N 02:01:41 46° ENE 02:06:00 10° SSE visible
27 Apr 6.5 00:39:40 10° NNE 00:41:43 13° ENE 00:43:45 10° E visible
27 Apr 3.7 02:15:58 10° N 02:20:28 80° E 02:24:58 10° SSE visible
28 Apr 6.1 00:57:26 10° NNE 01:00:47 20° ENE 01:04:08 10° ESE visible
28 Apr 3.7 02:34:44 10° NNW 02:39:08 59° W 02:43:33 10° S visible
